DELTA 1 R/B, 2661

Orbit data source: Space-Track

DELTA 1 R/B, 2661 is space debris in SSO originally from a launch on Thu, 26 Jan 1967 UTC launched from the Air Force Western Test Range (AFWTR). Debris objects in space refer to the collection of defunct objects orbiting the Earth. Examples of debris include non-operational satellites, rocket bodies, and fragments generated from explosions, collisions, or faulty payload assembly.

Loading next visibility...
DELTA 1 R/B details
Identifier
2661, 1967-006B
Orbit
SSO
Last TLE update22 hours ago
Origin
Flag of USGSFC (US)
ManufacturerABL
MissionSpacecraft
Bus & MotorALTAIR, Unknown motor
Mass33 kg wet, 33 kg dry
Launch date (UTC)
1967-01-26 (58 years ago)
Launch vehicleUnknown
Launch site
Air Force Western Test Range (AFWTR)
Object type
Payload
Rocket body
Debris
Shape & HBRCyl, 1.5 m
Radar Cross Section0.687 m², Medium (>0.1 m² and < 1m²)

Expand to show TLE details & history

TLE from 22 hours ago
0 DELTA 1 R/B
1  2661U 67006B   24355.73453307 -.00000035  00000-0  66377-4 0  9997
2  2661 101.9972  45.4570 0064799  42.2415  69.2249 12.68003777679717
Epoch: 2024-12-20T17:37Z
Definitive object data (Epoch: 2024-12-20T17:37:43.657Z)
Latitude65.02907°
Longitude-101.76617°
Altitude1,383.553 km
Speed7.182 km/s
True Right ascension16h 49m 50s
True Declination64° 54' 28"
Sunlit
Object was in daylight at TLE epoch
Visualization TLE readout
Latitude-14.99952°
Longitude55.43089°
Altitude1,367.164 km
Speed7.188 km/s
Apparent Right ascension03h 04m 48s
Apparent Declination-26° 09' 35"
Sunlit
Object is in full shadow
Visualization observer readout
Local Sidereal Time14:43:39
Azimuth340.636° N
Elevation-75.555°
Doppler factor1
Orbital elements
Apogee altitude1,437.942 km
Perigee altitude1,337.299 km
Semi-major axis7,765.757 km
Eccentricity0.0064799
Inclination101.9972°
RAAN45.457°
Arg. of periapsis42.2415°
True anomaly69.92114°
Mean anomaly69.2249°
Eccentric anomaly69.57282°
Mean motion3.17152 °/min
BSTAR0.000066377
Orbital period113.51 mins
Loading maneuver chart data...
Loading historical data...
Loading historical data...
Loading historical data...
Loading historical data...
Loading historical data...
Loading historical data...
Loading historical data...
Other satellites on launch #6 in the year 1967 (1967-01-26 UTC)

DELTA 1 R/B Visibility forecast

Observer location: undefined°, undefined

Span
Click to sort rows by Start time (UTC) header in descending order
Start Az.
Max El. time (UTC)
Max El. Az.
Max El.
End time (UTC)
End Az.
15 mins2024-12-21 16:22:19.011Z21.319° NNE2024-12-21 16:29:19.011Z75.835° E43.73°2024-12-21 16:37:19.011Z191.791° SSW
10 mins2024-12-21 18:16:19.011Z344.678° N2024-12-21 18:20:19.011Z307.399° NW22.989°2024-12-21 18:26:19.011Z256.444° W
8 mins2024-12-22 01:26:19.011Z84.92° E2024-12-22 01:30:19.011Z49.65° ENE18.335°2024-12-22 01:34:19.011Z15.629° NNE
14 mins2024-12-22 03:14:19.011Z158.885° S2024-12-22 03:20:19.011Z135.477° SSE44.893°2024-12-22 03:28:19.011Z342.957° N
7 mins2024-12-22 05:10:19.011Z245.373° WSW2024-12-22 05:13:19.011Z271.749° WNW15.989°2024-12-22 05:17:19.011Z303.926° NW
11 mins2024-12-22 15:09:19.011Z51.884° ENE2024-12-22 15:14:19.011Z97.886° ESE22.732°2024-12-22 15:20:19.011Z146.761° SSE
|